Tracking 28794 objects as of 19-Apr-2024
HD Live streaming from Space Station
objects crossing your sky now

FENGYUN 1C DEB

Track FENGYUN 1C DEB now!
10-day predictions


NORAD ID: 29927
Int'l Code: 1999-025HZ
Perigee: 731.3 km
Apogee: 765.5 km
Inclination: 99.1 °
Period: 99.6 minutes
Semi major axis: 7119 km
RCS: 0.028 m2 (small)
Launch date: May 10, 1999
Source: People's Republic of China (PRC)
Launch site: Taiyaun Space Center, China (TSC)

Note: This is SATELLITE DEBRIS
Your satellite tracking list
Your tracking list is empty




NASA's NSSDC Master Catalog

Two Line Element Set (TLE):
1 29927U 99025HZ  24110.39849211  .00022825  00000-0  64795-2 0  9991
2 29927  99.0811  70.4921 0024017 243.1381 269.4360 14.45231555898569
Source of the keplerian elements: AFSPC